FW8334 Weather Reports


Display with metric or nautical units.
time (UTC)temp
F
wind
direction
speed
MPH
gust
MPH
rain 1hr
in
rain 24hr
in
rain mn
in
humidity
%
barometer
mb
20260503054536 60 0 0.0 2.0 0.00 0.00 0.00 88 1012.3
20260503053043 60 0 0.0 1.0 0.00 0.00 0.00 88 1012.3
20260503051540 61 295 1.0 4.0 0.00 0.00 0.00 88 1012.2
20260503050040 61 0 0.0 2.0 0.00 0.00 0.00 88 1011.9
20260503044607 61 0 0.0 1.0 0.00 0.00 0.00 88 1011.6
20260503043036 60 327 0.0 3.0 0.00 0.00 0.00 88 1011.5
20260503041537 61 0 0.0 2.0 0.00 0.00 0.00 87 1011.2
20260503040041 61 266 1.0 3.0 0.00 0.00 0.00 87 1010.9
20260503034540 61 273 0.0 2.0 0.00 0.00 0.00 87 1010.8
20260503033039 61 0 0.0 2.0 0.00 0.00 0.00 87 1010.8
20260503031541 61 0 0.0 2.0 0.00 0.00 0.00 87 1010.6
20260503030040 61 0 1.0 3.0 0.00 0.00 0.00 86 1010.5
20260503024542 61 0 1.0 4.0 0.00 0.00 0.00 86 1010.3
20260503023042 61 0 0.0 4.0 0.00 0.00 0.00 85 1010.4
20260503021540 62 0 0.0 3.0 0.00 0.00 0.00 85 1010.3
20260503020040 62 269 2.0 5.0 0.00 0.00 0.00 85 1010.2
20260503014549 63 0 0.0 4.0 0.00 0.00 0.00 84 1010.2
20260503013042 63 250 0.0 6.0 0.00 0.00 0.00 84 1010.2
20260503011542 63 273 1.0 4.0 0.00 0.00 0.00 83 1010.0
20260503010040 64 295 1.0 6.0 0.00 0.00 0.00 83 1010.0
20260503004540 64 285 1.0 3.0 0.00 0.00 0.00 82 1010.0
20260503003049 65 266 0.0 5.0 0.00 0.00 0.00 81 1010.2
20260503001548 65 306 2.0 5.0 0.00 0.00 0.00 80 1010.2
20260503000047 66 257 2.0 6.0 0.00 0.00 0.00 78 1010.1
20260502234552 66 270 2.0 11.0 0.00 0.00 0.00 80 1010.2
20260502233040 66 0 2.0 6.0 0.00 0.00 0.00 78 1010.1
20260502231539 65 285 1.0 6.0 0.00 0.00 0.00 80 1010.4
20260502230047 66 255 2.0 8.0 0.00 0.00 0.00 80 1010.4
20260502224541 66 236 2.0 6.0 0.00 0.00 0.00 78 1010.6
20260502223051 67 217 2.0 6.0 0.00 0.00 0.00 77 1010.8
20260502221537 68 222 4.0 11.0 0.00 0.00 0.00 75 1011.2
20260502220039 69 275 3.0 7.0 0.00 0.00 0.00 74 1011.2
20260502214545 70 271 1.0 7.0 0.00 0.00 0.00 75 1011.3
20260502213042 70 277 3.0 9.0 0.00 0.00 0.00 73 1011.5
20260502211540 71 287 1.0 12.0 0.00 0.00 0.00 74 1011.5
20260502210042 70 240 3.0 11.0 0.00 0.00 0.00 74 1011.5
20260502204541 70 0 2.0 11.0 0.00 0.00 0.00 75 1011.4
20260502203104 71 310 1.0 8.0 0.00 0.00 0.00 75 1011.6
20260502201543 70 213 3.0 9.0 0.00 0.00 0.00 76 1011.4
20260502200045 69 259 3.0 8.0 0.00 0.00 0.00 77 1011.8
20260502194536 69 265 2.0 10.0 0.00 0.00 0.00 79 1012.2
20260502193040 70 296 3.0 8.0 0.00 0.00 0.00 77 1012.0
20260502191544 68 272 2.0 9.0 0.00 0.00 0.00 78 1012.4
20260502190039 69 215 3.0 9.0 0.00 0.00 0.00 76 1012.6
20260502184539 69 250 2.0 8.0 0.00 0.00 0.00 78 1012.8
20260502183043 67 275 0.0 6.0 0.00 0.00 0.00 78 1013.0
20260502181544 67 250 1.0 4.0 0.00 0.00 0.00 79 1013.3
20260502163050 63 0 0.0 1.0 0.00 0.00 0.00 88 1013.8
20260502161554 62 0 0.0 3.0 0.00 0.00 0.00 88 1013.7
20260502151540 61 0 0.0 2.0 0.00 0.00 0.00 89 1013.6
20260502123106 61 0 0.0 0.0 0.00 0.00 0.00 89 1012.7
20260502121536 61 0 0.0 2.0 0.00 0.00 0.00 89 1012.4
20260502114540 61 0 0.0 2.0 0.00 0.00 0.00 89 1012.3
20260502113047 61 246 0.0 2.0 0.00 0.00 0.00 89 1012.2
20260502111544 61 246 0.0 2.0 0.00 0.00 0.00 89 1012.2
20260502110042 61 0 0.0 2.0 0.00 0.00 0.00 88 1012.2
20260502104536 61 0 0.0 1.0 0.00 0.00 0.00 88 1012.2
20260502103042 61 0 0.0 2.0 0.00 0.00 0.00 88 1012.1
20260502101541 61 0 0.0 0.0 0.00 0.00 0.00 88 1012.1
20260502070040 62 0 0.0 0.0 0.00 0.00 0.00 86 1012.8
20260502064545 62 0 0.0 0.0 0.00 0.00 0.00 86 1012.8
20260502063041 62 0 0.0 2.0 0.00 0.00 0.00 86 1012.8
20260502061541 62 192 0.0 1.0 0.00 0.00 0.00 86 1012.8
20260502060040 62 0 0.0 0.0 0.00 0.00 0.00 86 1012.8